Wetbulb
59.61 59.12 58.69 58.76 59.38 58.51 58.58 59.66 59.71 59.24 58.81 59.27 59.63 59.91 59.58 60.50 60.47 57.19 52.03 55.68 56.96 61.67 62.05 57.08 56.51 53.10 51.62 49.10 51.58 51.10 44.88 43.47 46.77 46.97 48.09 53.50 53.45 53.53 56.91 55.16 54.90 55.69 57.88 60.87 62.55
59.53 59.47 59.19 58.19 58.52 58.58 58.14 58.52 59.50 59.39 58.93 59.19 59.29 59.44 60.01 60.12 55.72 52.79 58.52 60.44 60.19 61.64 56.64 53.36 52.00 49.58 45.58 46.30 48.34 45.55 42.75 46.12 51.89 53.08 49.39 53.32 55.05 53.04 53.92 53.10 53.27 57.83 60.86 61.92 60.06
58.78 59.14 59.15 58.70 57.91 58.34 57.91 57.87 58.67 59.22 59.35 59.06 59.23 59.23 59.76 58.48 51.38 51.47 60.08 60.68 60.99 60.15 58.29 56.58 54.64 50.77 43.91 44.52 45.49 45.51 42.22 50.29 50.63 53.44 51.72 52.75 53.16 53.52 52.24 50.18 52.71 56.66 58.12 59.59 57.98
58.23 58.55 58.84 58.70 57.87 57.66 57.82 57.67 57.66 58.24 59.10 59.17 59.17 59.53 59.37 55.39 40.26 51.73 58.35 58.62 59.66 59.98 56.24 54.49 51.92 45.19 42.03 40.84 45.06 41.64 46.67 48.77 53.29 52.80 51.58 49.77 53.34 51.53 50.90 50.91 55.63 60.18 60.31 59.26 57.23
57.41 57.95 58.26 58.32 57.84 57.46 57.46 57.65 57.51 57.57 58.08 58.74 58.86 59.26 55.83 48.40 46.35 55.18 60.63 61.25 59.62 58.00 54.23 52.80 49.52 44.94 40.88 40.97 42.86 42.08 45.32 48.07 52.50 52.89 51.70 50.99 48.38 49.90 47.79 51.12 59.71 60.55 59.99 58.59 57.74
57.00 57.15 57.72 57.91 57.74 57.55 57.40 57.24 57.46 57.11 57.44 57.76 58.40 58.35 52.03 42.61 52.98 53.41 54.50 58.84 58.07 55.76 53.01 52.86 50.27 48.85 44.36 42.99 41.13 43.45 46.10 47.14 49.26 50.77 51.90 49.38 48.04 48.05 48.51 57.31 59.06 59.16 58.26 58.21 57.99
56.10 56.56 57.23 57.56 57.55 57.20 57.02 56.93 56.69 56.91 57.09 57.71 57.95 54.95 48.85 46.80 53.79 52.93 55.94 55.54 56.74 56.16 52.42 53.49 52.47 47.95 46.75 42.69 45.69 43.99 41.68 44.99 45.47 48.31 48.83 51.15 46.82 45.23 49.59 55.58 56.33 57.17 57.77 57.77 57.92
55.74 56.03 56.52 57.17 57.28 56.87 56.48 56.40 57.04 57.02 57.24 57.53 57.75 51.80 45.20 54.19 50.40 51.91 53.67 55.34 57.23 57.00 55.45 53.88 52.45 49.20 46.71 46.45 44.23 41.31 39.94 35.59 43.09 46.77 47.63 50.63 45.05 47.55 49.56 52.54 52.83 55.13 56.40 56.97 57.34
55.65 56.10 56.47 56.65 56.70 56.49 56.47 56.40 57.03 57.39 56.96 57.73 51.46 47.34 41.35 54.74 49.88 50.55 50.38 51.01 54.57 54.66 55.26 54.77 50.56 45.77 44.89 38.08 35.21 37.69 31.30 34.26 39.55 46.95 45.11 45.40 42.73 48.70 48.15 50.20 50.26 52.19 53.35 55.54 56.05
55.31 55.76 56.15 56.14 56.22 56.51 56.47 56.52 55.83 54.68 54.42 54.09 52.90 43.71 47.16 45.10 49.13 50.04 50.10 53.33 50.68 51.05 50.36 48.29 44.14 38.89 37.74 33.87 27.90 30.58 31.49 33.80 36.66 43.51 44.21 41.47 41.41 43.85 46.20 48.20 48.69 50.49 51.80 53.35 55.07
55.57 55.62 55.87 55.79 56.06 56.17 52.73 49.71 45.44 44.59 47.52 43.68 44.76 45.04 47.02 49.46 50.55 49.50 50.82 49.01 48.27 46.26 40.41 43.29 36.47 31.66 35.48 36.83 37.20 36.14 34.21 33.66 36.97 44.38 42.66 41.48 41.50 42.58 44.24 44.70 47.03 50.30 49.92 51.82 53.94
55.78 55.61 55.40 55.42 55.40 55.73 51.32 46.75 45.97 46.75 40.93 47.92 48.03 47.83 49.60 49.94 45.56 47.64 50.21 43.05 42.34 37.79 41.99 39.39 33.75 39.54 42.23 41.31 38.25 36.76 34.33 32.58 37.40 42.79 41.90 40.91 40.78 44.11 42.46 43.80 46.09 50.09 50.63 51.00 52.52
55.65 55.45 55.19 54.76 54.62 51.56 47.91 47.88 51.48 49.91 39.77 44.73 47.41 47.00 47.58 48.70 44.34 44.71 47.20 44.79 41.32 38.85 39.42 38.29 39.84 42.97 41.38 38.13 36.90 34.65 32.77 32.78 34.96 38.34 39.20 37.16 35.33 39.89 42.30 42.32 44.08 46.56 51.88 52.88 53.02
55.41 55.11 54.32 54.11 50.39 48.78 47.39 51.90 51.57 49.11 34.45 38.25 42.59 45.88 48.13 47.85 42.41 49.05 48.63 44.56 41.39 38.16 39.35 37.63 42.64 40.13 38.28 37.33 36.80 31.79 37.42 37.84 37.51 33.00 28.64 35.81 26.41 34.57 40.02 40.92 41.83 41.95 45.40 51.30 51.70
55.19 54.45 54.05 53.29 47.67 46.82 49.40 50.56 48.85 45.50 16.17 39.32 42.43 50.01 47.40 42.81 43.52 44.26 47.88 44.70 38.68 39.49 38.01 34.94 37.66 37.12 36.97 37.22 37.96 35.16 38.68 37.06 37.06 33.15 29.60 30.37 26.13 32.68 38.06 38.88 40.93 41.29 42.65 43.61 48.86
54.25 53.55 53.27 50.85 48.28 48.61 50.11 48.66 46.77 30.82 15.46 34.46 42.21 41.52 40.76 42.28 42.74 44.40 43.84 44.97 44.11 39.79 39.29 37.29 40.93 39.07 37.65 40.03 39.06 39.85 36.34 35.73 34.47 31.84 23.32 29.36 27.50 29.07 33.29 39.45 39.69 40.12 40.78 42.63 43.93
53.42 53.50 50.58 50.15 46.79 50.12 49.09 44.93 31.27 23.27 37.11 34.97 36.36 40.29 38.93 38.08 39.69 40.79 39.45 36.58 34.54 28.50 28.73 35.21 36.40 38.68 40.26 36.36 38.31 37.47 30.88 22.86 22.35 20.91 22.41 29.47 25.82 32.21 37.05 39.53 40.31 40.17 39.79 41.04 44.01
52.73 52.21 51.23 50.63 50.44 49.27 46.15 38.24 26.55 33.79 34.24 40.19 38.75 38.76 35.21 38.10 37.54 38.84 36.17 33.55 36.80 34.93 29.04 26.68 24.02 36.06 39.39 36.26 33.52 32.51 31.87 24.88 21.31 21.20 22.95 28.37 24.61 31.78 37.79 39.97 40.79 40.92 40.47 41.29 43.33
51.28 47.71 46.35 48.02 50.64 47.90 41.78 28.44 27.50 34.27 39.20 37.26 38.08 32.47 32.93 37.17 35.01 34.60 33.85 33.74 34.65 36.30 29.34 28.15 28.76 37.51 38.79 38.45 36.74 33.09 28.61 32.93 26.60 26.56 22.61 24.60 29.43 34.33 36.92 38.28 39.63 40.26 40.89 40.32 42.77
45.29 45.84 46.69 48.41 48.70 45.34 37.09 33.66 34.20 39.58 40.21 39.85 32.93 34.25 29.16 32.68 32.21 31.60 31.82 34.97 35.32 36.09 34.79 32.16 26.23 35.39 37.44 37.97 36.91 32.47 34.49 27.11 25.24 22.21 20.96 22.96 25.63 26.94 31.37 35.56 38.31 39.12 39.62 40.92 42.47
45.71 42.41 47.73 48.39 45.71 39.78 30.12 31.02 37.14 40.89 39.73 37.00 35.79 34.73 33.48 31.53 32.19 31.04 32.24 35.15 37.08 35.78 34.63 32.31 30.71 30.04 34.68 32.42 31.68 30.51 29.23 30.04 29.69 26.82 22.40 19.53 23.92 33.02 33.95 36.95 37.68 38.73 40.46 40.83 41.30
45.94 39.70 47.48 46.49 38.71 33.77 31.91 34.40 39.78 37.82 39.39 37.82 37.38 37.29 35.56 34.24 31.96 31.40 32.43 34.78 37.56 36.28 32.15 32.76 30.84 25.05 30.29 33.04 34.55 32.79 31.36 31.05 24.98 25.51 24.55 23.32 24.41 35.12 34.65 38.00 39.11 38.63 40.08 39.48 39.53
42.86 41.66 46.62 44.59 31.94 32.81 34.86 36.74 36.92 36.22 36.07 36.02 35.68 36.53 36.39 34.44 30.89 33.85 33.82 38.96 38.55 36.72 32.23 33.08 28.25 20.68 25.93 29.42 31.33 28.93 32.33 31.90 30.73 27.50 24.39 23.14 25.95 34.43 33.08 36.78 38.18 37.70 36.93 36.87 37.01
40.12 36.50 43.00 41.88 37.91 35.69 33.91 35.05 34.25 37.24 36.04 36.40 35.21 35.03 33.61 32.50 35.31 33.10 33.84 38.30 37.86 36.77 41.32 37.28 28.76 26.56 23.31 25.89 30.00 26.77 30.03 31.82 29.88 22.10 23.94 25.71 26.74 28.43 32.85 35.51 36.02 35.77 35.93 35.84 36.34
40.57 37.92 39.58 32.98 38.41 36.78 36.04 36.37 34.98 34.88 36.04 35.66 33.21 33.58 31.89 28.78 31.08 31.45 34.53 35.96 37.51 39.86 34.51 32.63 26.12 25.87 27.68 29.64 29.18 29.60 30.54 30.93 26.23 28.82 26.54 26.79 28.72 29.41 32.10 34.47 35.64 36.24 36.36 35.94 35.66
36.90 36.99 38.66 36.67 38.28 35.76 37.47 35.50 36.87 37.26 36.11 35.06 32.98 35.76 34.23 30.78 32.83 31.37 33.03 33.33 32.75 34.10 32.87 32.28 25.82 26.56 24.79 29.11 27.90 26.81 28.92 29.39 30.26 31.36 30.53 30.85 31.81 35.11 33.74 35.74 35.82 36.35 36.94 36.19 35.72
41.83 41.26 38.47 36.10 36.04 35.26 35.05 36.55 38.32 38.26 38.84 39.26 36.97 35.34 34.56 36.70 36.86 36.79 36.32 35.20 34.36 33.04 32.35 31.11 27.96 25.42 22.85 29.41 30.00 26.36 29.75 29.04 27.53 30.71 32.47 28.13 32.04 32.09 32.43 36.59 36.83 36.05 37.43 36.51 36.32
MSLP
1020.67 1020.47 1020.31 1020.14 1019.95 1019.59 1019.12 1018.54 1018.04 1017.56 1017.40 1017.21 1017.00 1016.68 1016.37 1016.34 1016.44 1016.54 1016.21 1015.53 1015.31 1015.09 1014.91 1014.89 1014.61 1014.41 1014.51 1014.51 1014.08 1013.54 1013.89 1013.48 1012.81 1012.22 1010.98 1009.83 1009.39 1009.97 1010.42 1011.09 1012.32 1012.92 1013.49 1013.95 1015.79
1020.65 1020.51 1020.29 1020.10 1019.95 1019.74 1019.28 1018.81 1018.26 1017.67 1017.43 1017.20 1016.99 1016.76 1016.53 1016.50 1016.63 1016.28 1015.62 1015.23 1015.10 1014.95 1015.12 1015.18 1014.93 1014.67 1014.80 1014.52 1014.18 1013.92 1013.63 1012.81 1011.98 1011.36 1011.13 1010.24 1009.70 1010.11 1010.92 1011.77 1013.35 1013.81 1014.04 1014.71 1015.86
1020.56 1020.44 1020.23 1020.01 1019.90 1019.80 1019.49 1019.06 1018.57 1018.09 1017.68 1017.28 1017.07 1016.85 1016.69 1016.71 1016.61 1015.86 1015.45 1015.23 1015.04 1014.97 1015.22 1015.25 1014.93 1014.88 1014.86 1014.63 1014.14 1013.65 1013.36 1012.61 1012.31 1011.83 1011.13 1010.77 1010.17 1010.21 1011.08 1012.01 1012.76 1013.92 1014.77 1015.57 1016.20
1020.41 1020.25 1020.10 1019.98 1019.88 1019.74 1019.57 1019.25 1018.79 1018.39 1017.96 1017.45 1017.21 1017.02 1016.84 1016.84 1016.60 1015.73 1015.28 1015.11 1015.03 1015.04 1015.24 1014.99 1014.93 1015.04 1014.80 1014.74 1013.98 1013.65 1013.13 1012.89 1012.82 1012.30 1011.95 1011.70 1010.61 1010.71 1011.18 1011.72 1011.81 1013.16 1014.11 1015.39 1016.31
1020.35 1020.13 1019.97 1019.89 1019.80 1019.64 1019.56 1019.30 1018.98 1018.61 1018.18 1017.72 1017.44 1017.29 1017.04 1016.67 1016.03 1015.49 1015.16 1014.87 1015.10 1015.29 1015.24 1015.11 1015.17 1015.08 1014.98 1014.62 1014.18 1013.78 1013.33 1012.87 1012.77 1012.64 1012.69 1012.18 1011.51 1011.34 1011.88 1012.00 1012.38 1013.60 1014.64 1015.51 1016.24
1020.36 1020.22 1020.04 1019.82 1019.68 1019.48 1019.41 1019.20 1018.98 1018.70 1018.36 1018.00 1017.57 1017.32 1017.22 1016.51 1015.66 1015.27 1015.06 1015.09 1015.09 1015.32 1015.18 1015.07 1015.04 1014.92 1014.84 1014.46 1014.24 1013.23 1013.19 1013.27 1013.34 1013.04 1013.01 1013.01 1012.32 1011.72 1012.67 1012.50 1012.94 1013.73 1014.81 1015.54 1015.98
1020.36 1020.20 1020.09 1019.93 1019.67 1019.36 1019.20 1019.03 1018.90 1018.64 1018.40 1018.14 1017.73 1017.55 1017.12 1016.34 1015.61 1015.40 1015.06 1015.07 1014.98 1015.12 1015.13 1015.01 1014.90 1014.99 1014.91 1014.34 1013.75 1013.34 1013.52 1013.40 1013.52 1013.54 1013.47 1013.38 1013.18 1012.63 1012.69 1012.73 1013.13 1013.94 1014.85 1015.44 1015.77
1020.27 1020.16 1020.10 1019.99 1019.73 1019.31 1019.09 1018.84 1018.79 1018.59 1018.41 1018.06 1017.84 1017.64 1017.06 1015.79 1015.74 1015.48 1015.09 1015.02 1015.01 1015.07 1015.08 1014.92 1014.71 1014.89 1014.95 1014.37 1013.76 1013.59 1013.51 1013.53 1013.38 1013.37 1013.42 1013.27 1013.12 1012.98 1012.85 1012.92 1013.45 1013.94 1014.88 1015.21 1015.65
1020.22 1020.09 1019.98 1019.85 1019.69 1019.29 1018.97 1018.68 1018.49 1018.40 1018.27 1018.07 1017.97 1017.70 1016.79 1015.83 1015.83 1015.59 1015.37 1015.31 1015.22 1015.10 1015.09 1014.85 1014.93 1015.05 1015.03 1015.04 1014.78 1014.24 1014.15 1013.71 1013.52 1013.03 1013.37 1013.50 1012.99 1012.48 1012.81 1013.10 1013.48 1013.82 1014.39 1014.94 1015.56
1020.17 1020.03 1019.95 1019.83 1019.65 1019.31 1018.85 1018.44 1018.21 1018.29 1017.68 1017.81 1017.63 1017.70 1016.65 1016.31 1015.99 1015.79 1015.53 1015.39 1015.38 1015.38 1015.40 1015.37 1015.35 1015.73 1015.83 1015.92 1015.67 1014.97 1014.59 1013.93 1013.58 1013.38 1013.37 1013.50 1013.14 1012.62 1013.28 1013.40 1013.24 1013.64 1014.21 1014.99 1015.35
1020.11 1019.99 1019.88 1019.80 1019.59 1019.35 1018.93 1018.40 1018.76 1018.61 1018.14 1017.78 1017.43 1017.00 1016.53 1016.23 1016.03 1015.84 1015.67 1015.69 1015.64 1015.92 1016.03 1015.81 1016.35 1016.48 1016.20 1015.96 1015.47 1015.22 1014.86 1014.33 1013.45 1012.90 1013.07 1013.22 1013.18 1013.30 1013.32 1013.48 1013.32 1013.35 1013.86 1014.70 1015.05
1019.99 1019.86 1019.71 1019.74 1019.49 1019.30 1019.31 1019.11 1019.38 1019.42 1018.60 1017.26 1016.91 1016.74 1016.39 1016.25 1016.22 1015.97 1015.83 1016.14 1016.10 1016.20 1016.11 1016.34 1016.36 1015.94 1015.89 1015.63 1015.24 1014.98 1014.66 1014.25 1013.46 1012.90 1013.03 1013.33 1013.36 1013.15 1013.40 1012.89 1012.93 1012.07 1013.57 1014.30 1014.77
1019.96 1019.76 1019.59 1019.45 1019.37 1019.28 1019.19 1019.28 1019.05 1019.00 1019.00 1017.40 1016.73 1016.44 1016.30 1016.39 1016.22 1016.10 1016.15 1016.09 1016.22 1016.25 1016.22 1016.33 1015.95 1015.32 1015.39 1015.07 1014.83 1014.67 1014.57 1014.32 1013.90 1013.40 1013.54 1013.62 1013.92 1013.52 1012.97 1012.71 1012.44 1012.34 1012.17 1012.37 1013.91
1019.98 1019.67 1019.53 1019.35 1019.61 1019.19 1019.36 1019.18 1018.93 1019.02 1019.00 1017.73 1016.79 1016.41 1016.26 1016.16 1016.40 1016.13 1016.07 1016.42 1016.25 1016.24 1016.18 1016.15 1015.57 1015.45 1015.22 1015.08 1015.06 1014.82 1014.61 1014.27 1013.94 1014.28 1014.51 1014.22 1014.54 1013.70 1013.01 1012.68 1012.28 1011.95 1012.26 1012.92 1013.87
1020.06 1019.80 1019.55 1019.39 1019.81 1019.51 1019.64 1019.20 1018.99 1019.21 1019.36 1017.77 1016.64 1015.99 1015.97 1016.49 1016.46 1016.30 1016.24 1016.36 1016.56 1016.41 1016.57 1016.55 1016.09 1015.73 1015.39 1015.33 1015.15 1014.97 1014.72 1014.67 1014.51 1015.13 1015.17 1015.17 1015.16 1013.48 1012.82 1012.84 1012.51 1012.24 1012.52 1013.00 1013.67
1019.96 1019.77 1019.81 1019.73 1019.83 1019.76 1019.44 1019.36 1019.54 1019.66 1019.47 1017.93 1016.86 1016.40 1016.49 1016.30 1016.35 1016.36 1016.35 1016.50 1016.47 1016.60 1016.32 1016.39 1016.19 1016.07 1015.71 1015.36 1015.18 1015.01 1014.93 1015.20 1015.64 1016.21 1016.59 1015.97 1015.65 1014.21 1013.17 1012.32 1012.18 1012.26 1012.79 1013.34 1014.00
1019.96 1019.80 1019.52 1019.77 1020.04 1019.56 1019.48 1019.72 1020.27 1019.62 1019.17 1018.43 1017.52 1016.94 1016.62 1016.39 1016.30 1016.44 1016.54 1016.61 1016.87 1017.04 1016.98 1016.71 1016.50 1016.20 1016.01 1015.69 1015.35 1015.39 1016.15 1017.03 1017.72 1017.91 1017.57 1016.67 1016.31 1014.13 1013.09 1012.65 1012.04 1012.23 1013.23 1013.87 1014.37
1020.03 1019.77 1019.61 1019.51 1019.59 1019.59 1019.79 1020.15 1020.15 1019.83 1019.22 1018.42 1017.73 1017.18 1017.07 1016.36 1016.26 1016.32 1016.53 1016.71 1016.53 1017.01 1017.47 1017.33 1016.93 1016.46 1016.15 1016.08 1015.99 1016.06 1016.71 1017.68 1018.24 1018.44 1017.90 1017.04 1016.00 1014.08 1013.68 1013.50 1012.91 1013.27 1014.12 1014.86 1015.59
1020.40 1020.04 1019.88 1019.69 1019.51 1019.69 1020.10 1020.75 1020.76 1020.01 1019.35 1018.71 1017.77 1017.55 1017.02 1016.61 1016.58 1016.53 1016.46 1016.63 1016.62 1016.63 1017.37 1017.39 1016.99 1016.72 1016.48 1016.39 1016.60 1016.34 1016.70 1016.98 1017.75 1018.00 1018.04 1016.72 1015.46 1014.38 1014.26 1014.52 1014.61 1014.83 1015.31 1016.02 1016.56
1020.76 1020.39 1020.16 1019.69 1019.60 1020.03 1020.35 1020.79 1020.19 1019.72 1019.30 1018.73 1018.37 1017.63 1017.55 1017.00 1016.95 1016.81 1016.56 1016.77 1016.75 1016.79 1017.01 1017.21 1017.39 1017.12 1017.01 1016.76 1016.69 1016.72 1016.93 1017.25 1017.88 1018.19 1017.76 1016.66 1015.55 1014.51 1014.69 1015.05 1015.43 1015.80 1016.15 1016.63 1017.07
1020.72 1020.68 1020.09 1019.81 1019.95 1020.17 1020.94 1020.56 1019.91 1019.36 1019.29 1019.23 1018.73 1018.19 1017.61 1017.51 1017.19 1017.01 1017.09 1017.25 1017.30 1017.18 1016.95 1017.27 1017.63 1017.64 1017.40 1017.19 1016.62 1016.96 1016.81 1017.01 1017.42 1017.68 1017.43 1017.08 1015.73 1014.40 1014.46 1014.91 1015.50 1016.09 1016.61 1017.04 1017.54
1020.59 1020.84 1020.15 1020.07 1020.36 1020.31 1020.54 1019.92 1019.73 1019.29 1019.14 1019.07 1018.96 1018.63 1018.20 1017.70 1017.57 1017.33 1017.40 1017.32 1017.39 1017.59 1017.72 1017.62 1017.72 1018.03 1017.36 1016.90 1016.66 1016.49 1016.36 1016.42 1017.28 1017.35 1017.22 1016.94 1015.38 1014.21 1014.36 1014.82 1015.65 1016.56 1017.14 1017.67 1018.04
1021.16 1020.55 1020.37 1020.39 1020.48 1020.48 1019.87 1019.54 1019.34 1019.25 1019.11 1019.03 1018.86 1018.71 1018.39 1018.21 1017.98 1017.50 1017.47 1017.68 1017.82 1017.90 1018.01 1018.34 1018.29 1018.22 1017.67 1017.45 1016.86 1016.70 1016.50 1016.40 1016.63 1017.01 1016.96 1016.83 1015.20 1014.56 1014.71 1015.38 1016.00 1016.86 1017.67 1018.20 1018.66
1021.26 1021.16 1020.69 1020.57 1020.35 1020.00 1019.60 1019.21 1019.11 1019.03 1019.05 1018.98 1018.88 1018.76 1018.53 1018.23 1017.84 1017.81 1017.69 1017.71 1017.90 1018.23 1018.51 1018.54 1018.73 1018.63 1017.93 1017.21 1016.84 1016.88 1016.45 1016.41 1016.77 1017.37 1016.61 1015.63 1014.64 1014.85 1015.24 1015.85 1016.55 1017.15 1017.65 1018.36 1018.95
1021.24 1021.03 1020.72 1020.74 1020.20 1019.80 1019.47 1018.89 1018.72 1018.78 1019.03 1018.98 1018.92 1018.70 1018.78 1018.62 1018.11 1017.99 1017.69 1017.83 1018.16 1018.32 1018.65 1019.15 1019.15 1018.48 1017.85 1017.31 1016.91 1016.37 1016.12 1016.16 1016.51 1016.09 1015.93 1014.92 1014.55 1014.19 1014.63 1015.47 1016.31 1017.13 1017.81 1018.40 1019.04
1021.45 1021.21 1020.97 1020.25 1019.67 1019.50 1019.19 1018.61 1018.23 1018.10 1018.48 1018.73 1018.86 1018.47 1018.50 1018.63 1018.31 1018.33 1018.09 1018.11 1018.27 1018.75 1018.83 1019.08 1019.15 1018.73 1018.14 1016.84 1016.30 1015.95 1015.30 1015.33 1015.38 1015.32 1015.02 1014.54 1013.83 1013.41 1013.74 1014.97 1016.12 1016.59 1017.32 1018.14 1018.91
1021.10 1020.78 1020.96 1020.41 1019.85 1019.55 1018.83 1018.08 1017.84 1017.81 1017.60 1017.72 1018.13 1018.29 1018.29 1017.97 1017.92 1018.03 1018.21 1018.19 1018.30 1018.56 1018.90 1019.18 1019.24 1019.16 1018.25 1016.94 1016.29 1015.52 1013.94 1014.12 1014.24 1013.79 1013.77 1014.00 1013.20 1013.45 1014.12 1014.79 1015.46 1016.23 1016.84 1017.58 1018.35
Wind_Speed
10 11 12 13 14 15 17 17 16 12 10 10 10 9 4 1 1 1 4 4 2 3 5 6 6 5 2 3 3 3 2 5 8 6 6 4 5 3 2 7 5 3 7 13 17
9 10 11 11 13 15 16 16 17 14 11 11 8 9 6 2 3 7 3 1 1 4 4 5 5 3 2 4 3 3 4 6 6 8 2 3 6 7 6 5 6 10 13 20 18
9 9 10 10 11 12 14 15 15 15 14 12 8 8 6 3 3 1 4 4 3 0 2 5 6 3 4 2 4 4 4 6 5 3 7 3 4 4 11 2 7 15 17 17 16
8 8 9 10 10 11 12 14 16 15 15 14 9 8 6 1 4 2 5 5 3 2 4 4 4 3 1 5 5 2 5 6 3 3 5 7 1 5 3 4 10 20 21 16 16
8 8 8 8 9 10 12 13 14 14 13 13 12 10 4 2 4 4 5 5 2 2 4 2 3 2 2 2 4 6 8 5 6 6 3 8 3 5 3 2 18 18 16 16 14
9 8 9 8 8 9 11 12 11 11 12 12 12 11 2 2 5 6 6 4 2 4 3 2 3 4 5 4 4 4 11 4 4 5 2 4 4 2 2 11 16 18 15 14 15
8 9 9 10 8 9 10 11 12 10 9 11 10 4 3 3 5 6 6 3 4 1 2 2 2 5 7 6 3 4 8 4 5 6 5 3 6 3 7 9 15 13 12 12 13
7 9 10 10 10 9 9 10 11 10 9 8 9 2 4 2 4 6 1 3 5 2 2 6 5 2 2 5 7 6 3 4 5 8 4 8 8 8 8 11 11 11 10 10 10
7 8 9 10 10 10 9 10 10 10 10 9 3 1 3 3 3 5 5 3 3 2 4 5 1 1 7 3 5 4 3 3 2 8 6 5 5 6 8 9 11 11 9 9 8
8 8 9 9 9 10 11 8 8 8 5 6 4 3 3 2 2 4 3 4 2 2 3 1 3 3 5 4 4 2 2 3 4 7 2 5 3 3 4 7 11 10 9 8 8
8 8 9 8 8 10 8 3 5 4 1 2 5 2 2 2 1 1 1 2 3 4 3 2 6 2 8 6 6 3 4 7 4 6 5 8 6 8 8 5 10 13 10 10 9
9 8 7 8 7 8 3 3 2 3 6 3 4 3 3 1 3 1 3 1 1 2 2 4 3 8 5 9 6 6 4 4 2 2 5 6 9 7 9 9 7 18 13 12 9
9 7 6 6 5 3 1 3 3 4 1 4 1 2 1 2 4 1 1 4 2 3 3 3 6 6 6 4 4 2 2 1 5 1 3 4 4 5 6 4 7 6 13 15 16
8 7 6 5 3 2 2 5 4 2 4 3 2 1 1 1 2 2 1 0 4 3 4 2 3 2 1 2 3 3 1 4 5 4 5 6 5 7 7 10 7 9 8 11 13
7 7 5 6 2 3 3 5 4 4 7 7 2 2 2 1 2 1 1 3 3 4 5 5 4 3 2 2 2 5 3 3 3 3 4 1 5 9 6 10 12 11 11 10 11
5 5 6 2 1 3 5 5 4 8 4 5 1 3 1 3 2 1 1 2 3 4 3 3 1 1 2 3 2 4 3 5 5 3 3 4 7 7 5 13 7 5 7 9 10
4 2 2 2 1 4 4 3 6 8 2 6 3 5 5 4 3 4 3 2 1 5 4 2 1 1 1 2 4 5 6 4 5 5 6 4 4 10 4 6 6 10 7 7 8
3 2 3 1 2 4 3 4 9 2 3 2 3 6 4 2 2 4 3 3 3 2 2 3 7 3 1 1 2 3 6 5 5 4 5 3 6 8 1 5 8 11 8 8 8
7 2 2 2 2 3 5 7 3 2 3 5 7 2 4 2 1 2 6 2 1 4 3 4 4 1 2 2 2 2 2 3 2 3 3 5 6 4 1 4 6 8 8 8 8
2 2 1 2 2 4 6 1 1 2 4 3 2 2 3 5 1 1 2 3 2 3 3 2 4 0 1 1 2 2 3 3 3 1 4 5 4 7 5 6 5 6 7 7 6
2 3 2 1 3 5 4 3 2 2 1 2 4 5 3 2 4 3 5 3 6 4 2 1 2 4 2 5 6 1 3 2 2 5 3 2 8 6 7 9 10 9 8 8 8
2 2 1 3 3 1 2 2 1 1 1 2 2 3 3 4 3 3 3 2 2 1 4 2 4 4 9 2 1 2 5 6 6 4 2 3 8 2 1 9 8 8 7 7 7
0 2 2 4 2 2 3 2 2 2 2 1 2 1 2 3 3 2 3 1 2 2 1 2 3 3 8 5 3 1 4 2 2 3 5 5 7 1 2 6 7 10 7 7 8
3 3 3 2 1 2 1 2 2 2 2 2 3 2 2 3 5 4 3 3 1 1 1 2 2 5 7 6 4 3 5 5 5 3 4 8 5 4 5 7 7 8 9 9 8
1 3 4 3 3 1 2 2 2 3 3 4 2 5 2 3 4 4 2 2 2 2 1 1 4 3 6 9 5 7 7 7 9 8 9 2 5 3 10 10 11 9 9 9 8
1 2 3 3 2 3 3 4 6 2 6 4 4 2 6 5 4 4 1 3 2 2 2 2 4 3 6 6 8 7 10 10 9 7 11 10 18 9 6 8 10 14 14 12 9
2 1 5 4 2 4 5 5 5 4 4 5 8 2 4 9 6 5 5 4 5 0 3 3 2 3 6 5 5 8 10 11 5 6 9 10 9 6 4 9 13 12 13 14 12
Wind_Direction
348 354 359 358 359 5 7 5 0 354 350 340 337 334 340 304 124 198 242 225 116 360 333 313 312 253 257 260 226 301 140 198 195 212 235 256 108 38 150 91 59 27 149 149 145
336 341 346 352 356 359 2 4 7 12 357 345 339 337 343 339 272 247 276 60 94 47 356 329 328 294 221 215 259 162 171 206 195 235 181 261 116 133 108 110 54 70 88 124 131
331 331 335 347 350 352 354 360 5 9 6 352 334 337 352 325 237 67 335 334 338 312 268 277 279 330 194 212 238 208 199 245 16 324 19 237 117 107 127 145 168 151 137 140 136
325 327 332 343 342 342 345 349 3 4 6 2 345 332 327 292 61 239 271 291 307 260 280 306 325 337 163 218 241 241 222 246 185 277 31 327 340 100 113 172 155 154 145 145 147
313 324 330 340 338 333 328 338 351 358 4 6 9 355 317 346 45 173 322 300 214 191 239 269 299 290 254 256 265 216 265 288 139 164 282 321 27 124 107 149 133 135 143 152 153
316 320 331 335 336 331 327 329 333 345 351 352 357 332 304 39 301 9 332 147 215 204 247 171 242 300 257 254 189 227 223 202 179 158 168 1 327 88 256 128 128 140 152 160 162
322 322 329 330 330 329 326 327 328 328 338 334 342 336 322 267 318 329 318 0 163 125 4 301 300 41 325 314 335 241 219 137 168 180 166 144 307 261 169 142 135 146 159 166 173
333 325 327 325 324 324 322 318 320 315 310 304 324 21 282 247 327 323 325 22 27 147 257 296 2 313 223 286 325 159 115 147 211 145 172 152 253 202 188 145 151 150 172 168 182
340 332 326 325 321 317 313 307 306 299 294 289 314 58 342 325 5 335 15 314 193 239 335 312 1 333 343 23 9 13 179 166 163 179 138 198 223 186 186 162 165 163 162 168 179
347 339 326 320 321 315 305 284 288 316 282 245 246 1 310 332 336 318 312 335 315 99 330 309 40 32 351 68 189 247 342 319 187 199 151 189 262 93 232 198 172 157 155 168 184
350 335 327 320 322 318 338 12 13 357 12 257 303 349 358 270 320 265 278 350 353 39 29 275 65 227 243 232 229 303 247 229 236 214 139 195 207 198 218 237 179 165 163 184 188
351 338 329 320 317 321 324 55 87 212 323 246 251 263 240 80 292 317 356 314 332 317 311 27 253 242 238 263 232 240 252 285 263 199 160 177 230 218 197 219 219 163 173 184 165
349 340 330 322 319 358 323 63 330 14 245 280 243 323 144 40 331 275 110 333 279 309 317 183 267 322 213 330 29 326 225 299 231 133 18 136 286 225 242 265 211 228 192 161 184
342 344 343 333 350 306 52 326 343 54 64 296 278 231 271 258 307 5 356 248 313 282 280 236 289 312 321 321 51 309 20 272 135 105 185 152 244 241 213 222 229 221 168 177 183
339 345 356 32 286 50 293 329 323 67 52 291 316 245 180 142 221 272 15 339 280 321 64 275 357 338 17 311 356 239 329 272 159 191 77 332 87 270 199 212 215 218 205 188 183
354 2 353 15 33 310 325 345 43 47 305 339 296 282 259 223 206 218 270 159 251 302 233 241 256 319 230 301 253 283 348 26 47 76 54 245 130 276 203 219 207 185 185 176 150
342 5 18 299 287 312 347 51 36 80 273 316 321 332 317 227 194 184 231 244 218 33 338 345 269 258 270 325 340 45 52 3 8 14 215 288 73 243 295 315 234 157 135 117 117
297 350 295 128 340 11 53 58 64 298 358 344 282 294 248 203 240 208 302 290 219 157 311 143 336 201 283 232 194 195 141 154 182 177 241 329 233 253 81 359 54 75 103 96 104
336 302 318 273 343 61 74 47 219 300 294 327 315 299 315 270 236 243 210 217 12 169 152 8 286 336 12 2 62 275 165 173 105 310 75 224 274 291 120 79 71 97 104 116 128
358 326 276 287 60 64 75 217 227 284 318 312 304 39 317 324 299 128 225 329 98 95 27 281 330 27 295 355 248 206 308 60 3 206 245 279 245 230 213 194 156 132 135 136 132
68 30 270 65 55 51 106 229 286 169 39 341 326 315 310 340 321 283 341 358 10 336 111 194 85 280 74 214 191 116 291 233 155 153 179 296 266 218 219 192 177 173 158 141 130
88 11 267 73 44 90 139 218 189 289 175 289 262 267 298 322 309 303 348 184 333 350 310 302 151 256 232 254 313 263 243 166 129 250 217 149 275 262 266 181 155 153 144 137 129
358 227 345 76 96 317 270 240 221 228 239 308 274 83 317 280 331 332 336 294 347 6 191 344 284 349 333 347 359 237 266 273 108 65 217 142 261 147 86 114 145 142 137 128 126
76 1 334 53 215 157 345 251 249 212 241 212 252 282 288 277 211 290 300 224 190 331 331 70 256 206 198 204 167 231 233 221 155 139 210 223 252 208 215 168 156 143 140 139 139
102 217 184 285 299 254 177 256 253 249 226 203 258 222 220 292 308 228 255 272 195 162 354 138 261 240 259 257 247 231 222 210 194 204 189 220 217 229 202 186 177 159 149 147 152
116 86 355 257 189 185 211 245 205 213 163 235 216 240 199 214 203 274 327 237 288 189 217 156 271 316 285 275 217 241 238 224 229 238 251 255 271 204 200 129 159 170 165 163 156
298 14 106 272 236 137 222 226 232 151 236 196 201 234 250 245 225 229 232 250 237 252 211 188 214 15 266 304 312 294 236 202 204 210 190 215 223 158 150 179 175 170 167 166 164